TimeMST,TemperatureF,Dew PointF,Humidity,Sea Level PressureIn,VisibilityMPH,Wind Direction,Wind SpeedMPH,Gust SpeedMPH,PrecipitationIn,Events,Conditions,WindDirDegrees,DateUTC
5:00 AM,14,11,82,30.09,4,NW,9.2,,,Snow,Light Snow,310,2013-03-07 12:00:00
5:00 AM,14.0,10.4,86,30.09,4.0,NW,9.2,-,N/A,Snow,Light Snow,310,2013-03-07 12:00:00
5:53 AM,12.2,10.4,92,30.10,5.0,NNW,6.9,-,N/A,Snow,Light Snow,330,2013-03-07 12:53:00
6:00 AM,12.2,8.6,85,30.11,6.0,NW,6.9,-,N/A,,Ice Crystals,320,2013-03-07 13:00:00
6:08 AM,10.4,8.6,92,30.11,6.0,NW,8.1,-,N/A,,Mostly Cloudy,320,2013-03-07 13:08:00
6:50 AM,10.4,8.6,92,30.12,4.0,WNW,3.5,-,N/A,Snow,Light Snow,300,2013-03-07 13:50:00
7:00 AM,10.4,8.6,92,30.13,2.5,NW,4.6,-,N/A,Snow,Light Snow,310,2013-03-07 14:00:00
7:12 AM,10.4,8.6,92,30.13,3.0,NW,4.6,-,N/A,Snow,Light Snow,310,2013-03-07 14:12:00
8:00 AM,10.4,6.8,85,30.15,5.0,NW,4.6,-,N/A,,Overcast,320,2013-03-07 15:00:00
9:00 AM,14.0,10.4,86,30.15,4.0,NW,4.6,-,N/A,Snow,Light Snow,310,2013-03-07 16:00:00
10:00 AM,15.8,12.2,86,30.17,5.0,NNW,3.5,-,N/A,,Overcast,330,2013-03-07 17:00:00
10:31 AM,15.8,10.4,79,30.17,5.0,NNW,3.5,-,N/A,,Overcast,340,2013-03-07 17:31:00
11:00 AM,18,11,63,30.17,6,North,4.6,,,,Mist,350,2013-03-07 18:00:00
11:00 AM,17.6,10.4,73,30.17,6.0,North,4.6,-,N/A,,Mostly Cloudy,360,2013-03-07 18:00:00
12:00 PM,17.6,10.4,73,30.18,5.0,North,8.1,-,N/A,,Overcast,10,2013-03-07 19:00:00
12:44 PM,19.4,12.2,74,30.17,6.0,North,3.5,-,N/A,Snow,Light Snow,360,2013-03-07 19:44:00
1:00 PM,19.4,10.4,68,30.18,6.0,North,3.5,-,N/A,Snow,Light Snow,350,2013-03-07 20:00:00
2:00 PM,19.4,10.4,68,30.17,6.0,Calm,Calm,-,N/A,Snow,Light Snow,0,2013-03-07 21:00:00
2:23 PM,19.4,10.4,68,30.17,6.0,ESE,3.5,-,N/A,,Overcast,110,2013-03-07 21:23:00
3:00 PM,21.2,12.2,68,30.17,6.0,ESE,3.5,-,N/A,,Mostly Cloudy,110,2013-03-07 22:00:00
4:00 PM,19.4,12.2,74,30.18,6.0,East,4.6,-,N/A,,Mostly Cloudy,100,2013-03-07 23:00:00
5:00 PM,21,13,60,30.18,6,ESE,6.9,,,,Mist,110,2013-03-08 00:00:00
5:00 PM,21.2,12.2,68,30.17,6.0,ESE,8.1,-,N/A,,Overcast,110,2013-03-08 00:00:00
6:00 PM,17.6,12.2,79,30.20,5.0,ESE,8.1,-,N/A,,Overcast,120,2013-03-08 01:00:00
7:00 PM,14.0,10.4,86,30.22,5.0,ESE,11.5,-,N/A,,Overcast,120,2013-03-08 02:00:00
7:17 PM,14.0,10.4,86,30.23,5.0,SE,10.4,-,N/A,,Overcast,140,2013-03-08 02:17:00
8:00 PM,12.2,8.6,85,30.25,5.0,SSE,13.8,-,N/A,,Overcast,150,2013-03-08 03:00:00
9:00 PM,10.4,6.8,85,30.24,2.5,SSE,6.9,-,N/A,,Mostly Cloudy,150,2013-03-08 04:00:00
10:00 PM,10.4,8.6,92,29.98,2.5,SSE,8.1,-,N/A,,Overcast,150,2013-03-08 05:00:00